Location: Recife
(8.0585°S, 34.8848°W)
Time: 20:21:48
(UTC-03:00)

S-56A Canister/Altair - Pass Details

Date: 18 April 2026
Orbit: 633 x 2484 km, 38.9° (Epoch: 16 May)

Event Time Altitude Azimuth Distance (km) Brightness Sun altitude
Rises 15:39:22 0° 263° (W) 4,842 12.8 22.4°
Reaches altitude 10° 15:46:35 10° 228° (SW) 3,260 11.3 20.7°
Maximum altitude 15:48:10 11° 217° (SW) 3,079 11.0 20.3°
Drops below altitude 10° 15:49:38 10° 205° (SSW) 3,001 10.7 20.0°
Sets 15:54:57 0° 166° (SSE) 3,515 10.6 18.7°
